Regional Weather Roundup
Issued by NWS

Home | Current Version | Previous Version | Text Only | Print | Product List | Glossary On
Versions: 1 2 3 4 5 6 7 8 9 10 11 12 13 14 15 16 17 18 19 20 21 22 23 24 25 26 27 28 29 30 31 32 33 34 35 36 37 38 39 40 41 42 43 44 45 46 47 48 49 50
000
ASUS45 KABQ 230110
RWRNM
NEW MEXICO REGIONAL WEATHER ROUNDUP
NATIONAL WEATHER SERVICE ALBUQUERQUE NM
600 PM MST SUN JAN 22 2017

NOTE: "FAIR" MEANS FEW OR NO CLOUDS BELOW 12,000 FEET AGL WITH NO
       SIGNIFICANT WEATHER OR OBSTRUCTIONS TO VISION.

      THIS PRODUCT IS RELEASED AS TWO VERSIONS.  ONE VERSION NEAR
      THE TOP OF THE HOUR CONTAINING PRELIMINARY DATA FROM ALBUQUERQUE
      AND OTHER STATIONS.  A FINAL VERSION WITH ADDITIONAL DATA IS
      ISSUED ABOUT 10 MINUTES AFTER THE HOUR.

NMZ501-503-504-510>518-230200-
NORTHWEST PLATEAU/NORTHCENTRAL MOUNTAINS

CITY           SKY/WX    TMP DP  RH WIND       PRES   REMARKS
FARMINGTON     CLOUDY    34  24  67 E10       30.08R WCI  26
LOS ALAMOS     FAIR      32  20  63 W5        30.10S WCI  27
SANTA FE       FAIR      32  21  64 W5        30.08S WCI  27
TAOS           FAIR      28  10  47 SW8       30.08S WCI  20
ANGEL FIRE     FAIR      23  11  60 CALM      30.07S

$$
NMZ402-403-502-505>509-230200-
WESTCENTRAL MOUNTAINS/SOUTHWEST MOUNTAINS

CITY           SKY/WX    TMP DP  RH WIND       PRES   REMARKS
GALLUP         CLOUDY    30  27  88 S6        30.11S WCI  24
GRANTS         CLOUDY    32  29  88 SE7       30.13S WCI  25
SILVER CITY    FAIR      40  30  69 NW3       30.16S

$$
NMZ407-409-411-412-230200-
SOUTHERN DESERTS

CITY           SKY/WX    TMP DP  RH WIND       PRES   REMARKS
DEMING         FAIR      47  29  49 W9        30.14R
LAS CRUCES     FAIR      47  27  46 W14       30.14S
HOLLOMAN AFB   FAIR      48  25  40 SE3       30.16R
ALAMOGORDO     FAIR      46  23  39 N3        30.14R
T OR C         CLOUDY    47  25  42 CALM      30.09S

$$
NMZ519>523-230200-
CENTRAL VALLEYS/CENTRAL HIGHLANDS

CITY           SKY/WX    TMP DP  RH WIND       PRES   REMARKS
ALBUQUERQUE    MOCLDY    42  21  43 CALM      30.12R
DOUBLE EAGLE   CLOUDY    39  21  48 CALM      30.12S
MORIARTY ARPT  MOCLDY    35  19  52 W8        30.10R WCI  28
CLINES CORNERS FAIR      30  14  51 W23       30.05R WCI  17
BELEN          CLOUDY    43  22  43 NW8       30.12S
SOCORRO        MOCLDY    45  23  42 CALM      30.11R

$$
NMZ524>526-539-540-230200-
SOUTHCENTRAL MOUNTAINS

CITY           SKY/WX    TMP DP  RH WIND       PRES   REMARKS
RUIDOSO        FAIR      36  14  41 W8        30.08S WCI  29

$$
NMZ527>531-230200-
NORTHEAST HIGHLANDS/NORTHEAST PLAINS

CITY           SKY/WX    TMP DP  RH WIND       PRES   REMARKS
LAS VEGAS      FAIR      32  20  61 SE9       29.99R WCI  24
RATON          FAIR      33  15  47 N6        29.95R WCI  28
CLAYTON        FAIR      33  20  58 N3        29.97R

$$
NMZ532>537-230200-
EASTCENTRAL PLAINS

CITY           SKY/WX    TMP DP  RH WIND       PRES   REMARKS
TUCUMCARI      FAIR      46  17  31 SE6       29.96R
CANNON AFB     FAIR      48  15  26 W7        30.00R
CLOVIS AIRPORT FAIR      43  18  36 W6        29.99R

$$
NMZ028-029-538-230200-
SOUTHEAST PLAINS

CITY           SKY/WX    TMP DP  RH WIND       PRES   REMARKS
ROSWELL        FAIR      53  14  21 NW5       30.03R
ARTESIA        FAIR      50  21  32 SW12      30.04S
CARLSBAD       FAIR      51  18  27 W12       30.03R
HOBBS          CLEAR     46  18  31 W8        30.04R


$$




USA.gov is the U.S. government's official web portal to all federal, state and local government web resources and services.